Date String (YYYY-MM-DD hh:mm:ss) UTC,Instrument flags,Ambient pressure (hPa),Sample flow (lpm),Bypass flow (lpm),Sample temperature (°C),Ambient temperature (°C),ASC tube jacket temperature (°C),LED temperature (°C),Box temperature (°C),Sample RH (%),Span deviation,Mass concentration (μg/m³),Mass concentration (μg/m³),Mass concentration (μg/m³)
DateTimeUTC,F1_M11,P_M11,Q1_M11,Q2_M11,T1_M11,T2_M11,T3_M11,T4_M11,T5_M11,U1_M11,ZSPAN_M11,X0_M11,X2_M11,X1_M11
2022-01-30 00:00:00,,0827.7,5.00,0.00,29.1,28.3,00.0,38.1,30.9,06.9,0001.8,0021.80,0014.20,0013.38
2022-01-30 00:01:00,,0827.7,4.99,0.00,29.1,28.3,00.0,38.1,30.9,06.9,0002.2,0020.92,0014.27,0013.43
2022-01-30 00:02:00,,0827.7,5.01,0.00,29.1,28.3,00.0,38.1,30.9,06.9,0002.2,0020.50,0014.31,0013.46
2022-01-30 00:03:00,,0827.7,4.99,0.00,29.1,28.3,00.0,38.1,30.9,06.9,0002.8,0020.64,0014.38,0013.48
2022-01-30 00:04:00,,0827.7,5.01,0.00,29.1,28.3,00.0,38.1,30.9,06.9,0002.7,0021.11,0014.39,0013.49
2022-01-30 00:05:00,,0827.8,4.99,0.00,29.1,28.3,00.0,38.1,30.9,06.9,0002.1,0020.34,0014.36,0013.48
2022-01-30 00:06:00,,0827.7,5.00,0.00,29.1,28.3,00.0,38.1,30.9,07.0,0002.3,0019.75,0014.36,0013.48
2022-01-30 00:07:00,,0827.8,5.01,0.00,29.1,28.3,00.0,38.1,30.9,07.0,0002.4,0019.64,0014.38,0013.51
2022-01-30 00:08:00,,0827.8,4.99,0.00,29.1,28.3,00.0,38.1,30.9,07.1,0002.5,0019.78,0014.41,0013.55
2022-01-30 00:09:00,,0827.8,5.01,0.00,29.1,28.3,00.0,38.1,30.9,07.1,0002.7,0020.09,0014.44,0013.56
2022-01-30 00:10:00,,0827.7,5.00,0.00,29.1,28.3,00.0,38.0,30.8,07.1,0002.3,0020.07,0014.46,0013.60
2022-01-30 00:11:00,,0827.9,5.00,0.00,29.1,28.2,00.0,38.0,30.8,07.1,0002.3,0020.26,0014.51,0013.62
2022-01-30 00:12:00,,0827.8,4.99,0.00,29.1,28.2,00.0,38.0,30.8,07.1,0002.3,0020.43,0014.51,0013.63
2022-01-30 00:13:00,,0827.8,5.00,0.00,29.1,28.2,00.0,38.0,30.8,07.1,0002.2,0020.50,0014.52,0013.67
2022-01-30 00:14:00,,0827.8,5.01,0.00,29.1,28.2,00.0,38.0,30.8,07.1,0002.2,0020.65,0014.54,0013.69
2022-01-30 00:15:00,,0827.8,5.00,0.00,29.1,28.2,00.0,38.0,30.8,07.0,0002.3,0020.52,0014.62,0013.73
2022-01-30 00:16:00,,0827.8,5.01,0.00,29.0,28.2,00.0,38.0,30.7,07.0,0002.4,0020.47,0014.66,0013.77
2022-01-30 00:17:00,,0827.8,4.99,0.00,29.0,28.1,00.0,38.0,30.7,07.0,0001.9,0020.55,0014.66,0013.78
2022-01-30 00:18:00,,0827.8,5.00,0.00,29.0,28.1,00.0,38.0,30.6,07.0,0001.9,0021.08,0014.73,0013.80
2022-01-30 00:19:00,,0827.9,5.01,0.00,28.9,28.1,00.0,38.0,30.6,07.0,0001.6,0021.41,0014.75,0013.80
2022-01-30 00:20:00,,0827.9,5.00,0.00,28.9,28.1,00.0,38.0,30.6,06.9,0001.8,0021.89,0014.67,0013.78
2022-01-30 00:21:00,,0827.9,5.00,0.00,28.9,28.0,00.0,38.0,30.6,07.0,0002.9,0021.84,0014.61,0013.73
2022-01-30 00:22:00,,0827.9,5.00,0.00,28.9,28.0,00.0,37.9,30.6,07.0,0003.0,0021.91,0014.57,0013.70
2022-01-30 00:23:00,,0827.9,5.01,0.00,28.9,28.0,00.0,37.9,30.6,07.0,0002.5,0021.64,0014.55,0013.68
2022-01-30 00:24:00,,0828.0,5.00,0.00,28.8,28.0,00.0,37.9,30.6,06.9,0003.2,0022.18,0014.50,0013.61
2022-01-30 00:25:00,,0827.8,5.00,0.00,28.8,28.0,00.0,37.9,30.5,06.6,0002.9,0021.99,0014.39,0013.49
2022-01-30 00:26:00,,0827.8,5.00,0.00,28.8,28.0,00.0,37.9,30.5,06.7,0003.8,0021.59,0014.21,0013.36
2022-01-30 00:27:00,,0827.8,5.00,0.00,28.8,27.9,00.0,37.9,30.5,06.9,0003.9,0021.75,0014.13,0013.29
2022-01-30 00:28:00,,0827.8,4.99,0.00,28.8,27.9,00.0,37.9,30.5,06.8,0003.0,0022.30,0014.12,0013.21
2022-01-30 00:29:00,,0827.8,5.01,0.00,28.8,27.9,00.0,37.8,30.4,06.6,0002.9,0021.80,0013.97,0013.10
2022-01-30 00:30:00,,0827.8,4.99,0.00,28.7,27.9,00.0,37.8,30.4,06.5,0003.9,0021.69,0013.85,0012.99
2022-01-30 00:31:00,,0827.8,5.01,0.00,28.7,27.9,00.0,37.8,30.4,06.5,0003.7,0021.60,0013.79,0012.90
2022-01-30 00:32:00,,0827.8,4.99,0.00,28.7,27.8,00.0,37.8,30.3,06.5,0003.3,0021.77,0013.78,0012.85
2022-01-30 00:33:00,,0827.9,5.02,0.00,28.7,27.8,00.0,37.8,30.3,06.4,0003.5,0021.52,0013.71,0012.77
2022-01-30 00:34:00,,0827.9,4.98,0.00,28.6,27.8,00.0,37.8,30.3,06.4,0003.5,0021.22,0013.58,0012.67
2022-01-30 00:35:00,,0828.0,5.00,0.00,28.6,27.7,00.0,37.7,30.3,06.6,0003.6,0020.72,0013.53,0012.61
2022-01-30 00:36:00,,0828.0,5.01,0.00,28.6,27.7,00.0,37.7,30.2,06.3,0003.6,0020.26,0013.40,0012.50
2022-01-30 00:37:00,,0827.9,4.99,0.00,28.6,27.7,00.0,37.7,30.2,06.6,0003.5,0020.83,0013.36,0012.46
2022-01-30 00:38:00,,0828.0,4.99,0.00,28.5,27.7,00.0,37.7,30.2,06.7,0003.1,0020.77,0013.32,0012.41
2022-01-30 00:39:00,,0827.9,5.02,0.00,28.5,27.6,00.0,37.7,30.2,06.6,0003.3,0019.87,0013.19,0012.34
2022-01-30 00:40:00,,0827.8,4.98,0.00,28.5,27.6,00.0,37.6,30.1,06.5,0003.3,0019.66,0013.13,0012.28
2022-01-30 00:41:00,,0827.8,5.02,0.00,28.5,27.6,00.0,37.6,30.1,06.6,0003.7,0019.61,0013.12,0012.27
2022-01-30 00:42:00,,0827.8,4.99,0.00,28.4,27.6,00.0,37.6,30.1,06.7,0003.7,0019.00,0013.12,0012.29
2022-01-30 00:43:00,,0828.0,5.00,0.00,28.4,27.5,00.0,37.6,30.1,06.7,0002.0,0018.55,0013.04,0012.27
2022-01-30 00:44:00,,0827.9,5.00,0.00,28.4,27.5,00.0,37.6,30.1,06.7,0000.0,0018.71,0013.05,0012.28
2022-01-30 00:45:00,,0827.9,5.01,0.00,28.4,27.5,00.0,37.5,30.0,06.6,0000.0,0018.95,0013.14,0012.33
2022-01-30 00:46:00,,0827.9,5.00,0.00,28.3,27.5,00.0,37.5,30.0,06.7,0000.0,0019.07,0013.14,0012.36
2022-01-30 00:47:00,,0827.8,5.00,0.00,28.3,27.4,00.0,37.5,30.0,06.9,0000.0,0019.28,0013.18,0012.41
2022-01-30 00:48:00,,0827.9,5.00,0.00,28.3,27.4,00.0,37.5,30.0,06.9,0000.0,0018.92,0013.12,0012.36
2022-01-30 00:49:00,,0827.9,4.99,0.00,28.3,27.4,00.0,37.4,29.9,06.7,0000.0,0018.76,0012.92,0012.18
2022-01-30 00:50:00,,0827.9,5.01,0.00,28.2,27.4,00.0,37.4,29.9,06.8,0000.0,0018.58,0012.70,0011.96
2022-01-30 00:51:00,,0827.9,4.99,0.00,28.2,27.3,00.0,37.4,29.9,06.7,0000.0,0018.58,0012.55,0011.78
2022-01-30 00:52:00,,0828.0,5.01,0.00,28.2,27.3,00.0,37.4,29.9,06.7,0000.0,0018.23,0012.30,0011.55
2022-01-30 00:53:00,,0827.9,4.99,0.00,28.2,27.3,00.0,37.4,29.8,06.8,0000.0,0017.74,0012.05,0011.31
2022-01-30 00:54:00,,0828.0,5.00,0.00,28.1,27.3,00.0,37.3,29.8,06.8,0000.0,0017.40,0011.84,0011.07
2022-01-30 00:55:00,,0828.0,4.99,0.00,28.1,27.2,00.0,37.3,29.8,06.8,0000.0,0017.17,0011.56,0010.82
2022-01-30 00:56:00,,0827.9,4.99,0.00,28.1,27.2,00.0,37.3,29.8,06.8,0000.0,0016.80,0011.30,0010.59
2022-01-30 00:57:00,,0827.9,5.01,0.00,28.1,27.2,00.0,37.3,29.7,06.7,0000.0,0016.49,0011.10,0010.40
2022-01-30 00:58:00,,0827.9,5.00,0.00,28.0,27.2,00.0,37.2,29.7,06.8,0000.0,0016.83,0011.00,0010.28
2022-01-30 00:59:00,,0827.8,4.99,0.00,28.0,27.2,00.0,37.2,29.7,06.8,0000.0,0017.15,0011.01,0010.26
